Location: Mountain_View
(35.6670°N, 81.4000°W)
Time: 12:32:40
(UTC-04:00)

Daily predictions for brighter satellites

Satellite Brightness Start Highest point End
(mag) Time Altitude Azimuth Time Altitude Azimuth Time Altitude Azimuth
Milstar 3 Cent rocket 3.9 19:50:34 10° SSW 19:53:23 14° SSE 19:55:57 10° SE
Tiangong 2 1.2 19:51:28 10° WNW 19:54:41 78° SSW 19:57:53 10° ESE
CZ-4 R/B 4.2 19:51:57 10° SSW 19:55:16 24° W 19:58:39 10° NW
COSMO-SKYMED 1 3.8 19:52:30 10° N 19:56:40 47° WNW 20:00:49 10° SSW
Cosmos 1707 3.9 19:54:49 10° NNE 19:58:05 24° ENE 20:01:19 10° SE
Cosmos 1709 Rocket 4.0 19:52:54 10° S 19:59:09 70° E 20:05:30 10° NNE
Cosmos 2369 Rocket 2.2 19:57:34 10° NNW 20:03:15 78° ENE 20:08:50 10° SSE
FENGYUN 3A 3.6 19:58:14 10° SSE 20:03:34 75° ENE 20:08:55 10° N
Cosmos 1340 Rocket 3.3 20:01:37 10° N 20:05:27 40° ENE 20:09:17 10° SSE
Cosmos 1758 Rocket 3.9 20:02:10 10° N 20:06:28 44° E 20:10:45 10° SSE
NOSS 2 (A) 4.2 20:04:19 10° NNW 20:06:42 57° ENE 20:09:31 10° SE
ALOS 2.3 20:03:18 10° SSE 20:07:58 88° ENE 20:12:39 10° NNW
Cosmos 389 Rocket 2.4 20:04:30 10° S 20:08:01 72° E 20:11:31 10° NNE
Geosat 4.0 20:04:57 10° SSE 20:09:58 90° ESE 20:15:01 10° NNW
OAO 2 Rocket 4.2 20:05:33 10° W 20:10:39 47° SSW 20:15:36 11° SE
Cosmos 1726 Rocket 3.5 20:07:08 10° S 20:11:26 61° E 20:15:44 10° NNE
Lacrosse 5 1.9 20:06:25 10° NW 20:11:31 88° SW 20:16:35 10° SE
Cosmos 1271 Rocket 2.9 20:10:26 10° SSW 20:14:09 74° W 20:17:57 10° N
FREGAT/IRIS 2.5 20:13:50 10° SSE 20:16:50 71° E 20:19:52 10° N
Resurs 01 Rocket 2.8 20:16:42 15° ESE 20:19:12 24° ENE 20:22:44 10° NNE
Cosmos 2263 4.1 20:15:55 10° NNW 20:21:34 80° ENE 20:27:12 10° SSE
Cosmos 2184 Rocket 4.4 20:17:11 10° SSE 20:22:59 42° E 20:28:52 10° NNE
Cosmos 2298 Rocket 4.2 20:20:53 10° N 20:26:08 55° ENE 20:31:20 10° SSE
CZ-2D R/B 3.9 20:26:31 19° SE 20:28:37 33° ENE 20:32:04 10° N
FALCON 9 R/B 1.4 20:26:31 10° WSW 20:29:18 71° S 20:33:19 20° E
SJ-6B 2.8 20:27:50 10° SSE 20:31:54 76° ENE 20:35:53 10° N
GP-B 4.4 20:28:40 10° NE 20:31:49 21° E 20:31:49 21° E
Cosmos 841 Rocket 3.5 20:27:16 10° S 20:32:17 57° ESE 20:37:20 10° NNE
Cosmos 1937 Rocket 3.5 20:29:33 10° NNW 20:34:51 65° ENE 20:39:54 11° SSE
Cosmos 1378 3.0 20:32:54 10° N 20:36:42 70° E 20:40:26 10° SSE
Meteor 1-24 Rocket 4.2 20:34:26 10° N 20:40:07 43° ENE 20:43:59 19° SE
USA 229 DEB 3.8 20:33:22 10° NNW 20:40:36 79° ENE 20:46:57 15° SE
USA 229 3.8 20:33:28 10° NNW 20:40:42 78° ENE 20:46:59 15° SE
Cosmos 909 Rocket 4.4 20:33:11 10° NNW 20:41:48 79° ENE 20:47:51 14° SSE
HJ-1C 3.5 20:41:48 10° S 20:45:07 73° WSW 20:48:29 10° NNW
Cosmos 2058 Rocket 3.2 20:42:06 10° SSW 20:46:25 72° W 20:50:47 10° N
Cosmos 1544 4.4 20:49:31 25° NE 20:49:31 25° NE 20:51:23 10° NNE
Cosmos 2327 Rocket 4.4 20:42:14 10° S 20:48:17 62° E 20:54:17 10° NNE
Cosmos 2084 3.4 20:45:58 10° SW 20:50:08 77° WNW 20:54:05 10° NNE
Cosmos 2228 3.3 20:46:55 10° SSW 20:51:16 69° W 20:55:37 10° N
Cosmos 1953 Rocket 4.3 20:48:35 10° NNW 20:52:49 53° W 20:57:00 10° S
Cosmos 1763 Rocket 3.9 20:50:16 10° SSW 20:55:16 61° WNW 21:00:22 10° N
NOSS 3-1 (C) 4.3 20:48:33 10° NNW 20:56:07 55° NE 21:00:23 29° ESE
MOS 1-B Rocket 4.1 20:55:10 21° SE 20:59:32 57° ENE 21:05:14 10° N
ATLAS CENTAUR R/B 3.0 20:51:50 10° NW 21:04:03 67° NE 21:05:47 42° ESE
Cosmos 540 Rocket 3.4 20:59:36 10° S 21:04:34 55° ESE 21:09:33 10° NNE
Meteor 2-5 Rocket 4.1 20:59:41 10° NNW 21:05:31 68° W 21:11:12 10° S
GEOS 3 Rocket 3.6 21:02:34 10° NE 21:07:59 83° ESE 21:13:21 10° SSW
Meteor 2-19 Rocket 4.4 21:03:44 10° S 21:09:39 60° E 21:15:35 10° NNE
Cosmos 1943 Rocket 3.2 21:06:45 10° NW 21:12:02 44° WSW 21:17:18 10° S
Meteor 1-22 Rocket 4.3 21:06:25 10° S 21:12:15 81° W 21:17:54 10° N
Spot 2 Rocket 3.3 21:12:52 39° SSE 21:14:46 84° ENE 21:19:50 10° NNW
Cosmos 836 Rocket 4.3 21:11:39 10° SSW 21:16:55 79° ESE 21:22:13 10° NNE
Cosmos 1939 Rocket 4.3 21:19:29 27° NNE 21:19:29 27° NNE 21:21:27 10° N
BREEZE-M DEB (TANK) 3.8 21:06:41 10° WSW 21:19:10 69° NNW 21:21:11 34° NE
Cosmos 1766 3.8 21:16:08 10° SSW 21:20:01 58° W 21:23:54 10° N
OAO 3 Copernicus 4.1 21:17:30 10° WSW 21:22:32 73° S 21:22:40 73° SSE
Cosmos 2154 Rocket 3.8 21:22:07 14° S 21:27:28 77° E 21:33:42 10° N
COSMOS 2406 3.3 21:23:13 10° SSW 21:28:53 76° WNW 21:34:38 10° NNE
Tiangong 2 4.2 21:30:33 10° SW 21:30:36 10° SW 21:30:36 10° SW
Cosmos 2341 Rocket 4.1 21:34:12 54° ENE 21:34:12 54° ENE 21:39:27 10° NNE
Cosmos 1125 Rocket 3.9 21:34:34 10° NNW 21:38:48 53° NNE 21:38:48 53° NNE
Envisat 3.7 21:45:42 43° SW 21:46:49 51° W 21:51:46 10° NNW
Cosmos 1656 Rocket 4.5 21:49:19 10° NW 21:54:40 45° WSW 21:55:34 42° SW
Resurs 01 Rocket 3.5 21:54:17 23° WSW 21:55:32 26° W 21:59:16 10° NW
Nadezhda 3 Rocket 4.2 21:58:54 10° NNW 22:05:09 66° W 22:05:26 65° WSW
BREEZE-M (TANK) 4.5 21:58:57 10° WNW 22:05:13 33° WSW 22:05:13 33° WSW
ATLAS 2AS CENTAUR R/B 4.1 22:20:09 10° NNW 22:25:45 32° NNE 22:25:45 32° NNE
